Regional Weather Roundup
Issued by NWS

Home | Current Version | Previous Version | Graphics & Text | Print | Product List | Glossary On
Versions: 1 2 3 4 5 6 7 8 9 10 11 12 13 14 15 16 17 18 19 20 21 22 23 24 25 26 27 28 29 30 31 32 33 34 35 36 37 38 39 40 41 42 43 44 45 46 47 48 49 50
145
ASUS45 KBOU 241307
RWRCO

WEATHER ROUNDUP FOR COLORADO
NATIONAL WEATHER SERVICE DENVER/BOULDER CO
700 AM MDT SUN SEP 24 2017

NOTE: "FAIR" INDICATES FEW OR NO CLOUDS BELOW 12000 FEET WITH NO
SIGNIFICANT WEATHER AND/OR OBSTRUCTIONS TO VISIBILITY.

COZ001>005-013-030-031-241400-
...NORTHWEST COLORADO...

CITY           SKY/WX    TMP DP  RH WIND       PRES   REMARKS
CRAIG          CLOUDY    39  37  92 CALM      29.89R
HAYDEN         FAIR      33  31  92 S5        29.90R WCI  29
MEEKER         MOCLDY    33  32  96 CALM      29.89R
RABBIT EARS PA FAIR      30  30 100 SE7       30.00R WCI  23
STEAMBOAT SPGS FAIR      31  31  97 SE3       29.89R
WALDEN         CLOUDY    32  30  93 CALM      29.98S VSB 1/2
$$

COZ006>008-011-241400-
...WEST CENTRAL VALLEYS...

CITY           SKY/WX    TMP DP  RH WIND       PRES   REMARKS
GRAND JUNCTION FAIR      39  39 100 E12       29.85R
MONTROSE       FAIR      39  35  86 SE9       29.91R
EAGLE          CLOUDY    36  35  96 CALM      29.95R
RIFLE          MOCLDY    37  37 100 CALM      29.87R
DELTA          NOT AVBL
NUCLA          FAIR      43  30  61 SE3       29.95R
$$

COZ017>023-064>068-241400-
...SOUTHWEST COLORADO...

CITY           SKY/WX    TMP DP  RH WIND       PRES   REMARKS
DURANGO        FAIR      32  32 100 E5        29.98R WCI  27
CORTEZ         FAIR      34  33  96 NE5       29.94S WCI  30
PAGOSA SPRINGS FAIR      35  35 100 CALM      30.03R
TELLURIDE      FAIR      39  22  49 SE10      29.99R
WOLF CREEK PAS FAIR      23  21  93 S16G22    30.15S WCI  10
$$

COZ009-010-012-014-032>034-037-058>063-241400-
...CENTRAL COLORADO...

CITY           SKY/WX    TMP DP  RH WIND       PRES   REMARKS
ASPEN          FAIR      32  30  92 CALM      29.90S
BUENA VISTA    FAIR      42  40  94 SE8       29.99R
COPPER MTN     FAIR      34  21  60 SE24      30.06F WCI  21
BERTHOUD PASS  HVY SNOW  27  18  69 SE26G35   30.11R VSB<1/4 WCI  11
COTTONWOOD PAS   N/A     43  41  93 SE16      30.03S
GUNNISON       FOG       26  26 100 E5        29.97R VSB 1/4 WCI  20
KREMMLING      CLOUDY    41  37  87 CALM      29.96S
LEADVILLE      FAIR      34  28  79 SE8       30.00S WCI  27
MONARCH PASS   FAIR      28  23  80 S16G23    30.20R WCI  17
SALIDA         CLOUDY    46  43  88 E7        30.05R
SUNLIGHT       MOCLDY    30  28  93 SE6       30.04R WCI  24
WILKERSON PASS FOG       32  32 100 S10G22    30.12S VSB 1/4 WCI  24
$$

COZ069>075-241400-
...SAN LUIS VALLEY/SANGRE DE CRISTO MOUNTAINS...

CITY           SKY/WX    TMP DP  RH WIND       PRES   REMARKS
ALAMOSA        CLOUDY    42  40  92 S6        29.99R
DEL NORTE      FAIR      33  32  96 W8        30.01S WCI  26
LA VETA PASS   MOCLDY    36  34  93 S20G33    30.19S
SAGUACHE       CLOUDY    41  41 100 CALM      30.00S
$$

COZ035-036-038>040-241400-
...NORTHERN COLORADO FRONT RANGE...

CITY           SKY/WX    TMP DP  RH WIND       PRES   REMARKS
DENVER INTL AP CLOUDY    46  42  86 SE3       29.99R
DMNS CITY PARK   N/A     46  45  97 E8        29.98S
AURORA         CLOUDY    45  45  99 SE3       29.99R
FRONT RANGE AP CLOUDY    48  46  93 CALM      29.99S
ERIE MUNI ARPT CLOUDY    47  44  91 CALM      30.04R
BOULDER MUN AP CLOUDY    45  45 100 CALM      29.98R
CENTENNIAL     CLOUDY    45  44  97 SE5       29.98R
BROOMFIELD     CLOUDY    46  45  93 CALM      29.99R
FORT COLLINS   CLOUDY    47  44  90 S3        29.99R
LONGMONT       CLOUDY    48  46  90 CALM      30.00R
$$

COZ041-046-047-076>085-087-088-241400-
...PIKES PEAK/PALMER DIVIDE AND SOUTHERN FOOTHILLS...

CITY           SKY/WX    TMP DP  RH WIND       PRES   REMARKS
COLO. SPRINGS  CLOUDY    46  44  93 NE3       29.99S FOG
A. F. ACADEMY  MIX PCPN  43  43 100 N6        29.99R
SCHRIEVER AFB  DRIZZLE   45  43  93 MISG      29.99S
CHEYENNE MTN   CLOUDY    43  40  89 NW3       29.95R
ELLICOTT       CLOUDY   N/A N/A N/A NE7       29.97S
FALCON         CLOUDY    42  42  97 N7        30.01S FOG
FORT CARSON    DRIZZLE   46  45  93 E5        29.97R FOG
LIMON            N/A    N/A N/A N/A MISG      29.97S
MONUMENT HILL  CLOUDY    39  39 100 E3        30.02R
CANON CITY     CLOUDY    48  48 100 E3        29.97R FOG
WALSENBURG     CLOUDY    48  46  93 CALM      29.99R
TRINIDAD       CLOUDY    48  48 100 N3        29.97R FOG
$$

COZ042>045-048>051-090-091-241400-
...NORTHEAST COLORADO...

CITY           SKY/WX    TMP DP  RH WIND       PRES   REMARKS
GREELEY ARPT   CLOUDY    47  46  97 NE3       29.99R
AKRON          CLOUDY    44  42  93 N12       29.97S
BURLINGTON     CLOUDY    49  48  97 NW14      29.96R FOG
WRAY           CLOUDY   N/A N/A N/A NW13      29.96S HAZE
YUMA           CLOUDY    45  43  93 NW9       29.96R
STERLING       CLOUDY    45  45 100 N9        29.96F
HOLYOKE        CLOUDY    46  45  93 NW13      29.97R
FORT MORGAN    CLOUDY    46  43  91 NE13      29.99R
$$

COZ086-089-092>099-241400-
...SOUTHEAST COLORADO...

CITY           SKY/WX    TMP DP  RH WIND       PRES   REMARKS
PUEBLO         CLOUDY    50  47  89 N6        29.95S
LA JUNTA       CLOUDY    52  50  93 N6        29.93S FOG
LAMAR          LGT RAIN  54  52  93 N8        29.89S
SPRINGFIELD      N/A     56  56 100 E5        29.91R
$$




USA.gov is the U.S. government's official web portal to all federal, state and local government web resources and services.